Location: Unspecified
(0.0000°N, 0.0000°E)
Time: 15:05:51
(UTC+00:00)

Vanguard 1 Rocket - All Passes

Search period start: 21 October 2014 00:00
Search period end: 31 October 2014 00:00
Orbit: 654 x 4226 km, 34.3° (Epoch: 17 October)

Date Brightness Start Highest point End Pass type
(mag) Time Alt. Az. Time Alt. Az. Time Alt. Az.
21 Oct - 01:32:16 10° W 01:48:09 23° NW 01:59:06 10° NNE visible
21 Oct - 09:15:31 10° NW 09:19:46 43° NE 09:24:19 10° ESE daylight
21 Oct - 11:41:41 10° WSW 11:45:19 19° SSW 11:50:08 10° SSE daylight
21 Oct - 16:41:34 10° SSW 16:50:53 17° SSE 17:03:06 10° ESE daylight
21 Oct - 19:06:33 10° SSW 19:26:35 45° SE 19:50:27 10° ENE visible
21 Oct - 21:35:11 10° SW 22:01:02 86° NW 22:23:16 10° NE visible
22 Oct - 00:11:48 10° W 00:34:03 37° NW 00:49:22 10° NNE visible
22 Oct - 08:06:01 10° NNW 08:09:14 17° NNE 08:12:11 10° ENE daylight
22 Oct - 10:30:11 10° W 10:34:16 37° SSW 10:39:28 10° SE daylight
22 Oct - 17:55:31 10° SSW 18:11:15 31° SSE 18:32:15 10° E visible
22 Oct - 20:22:03 10° SW 20:45:44 73° SE 21:10:12 10° ENE visible
22 Oct - 22:54:17 10° WSW 23:19:33 54° NW 23:38:40 10° NE visible
23 Oct - 01:39:27 10° WNW 01:52:49 19° NNW 02:02:32 10° N visible
23 Oct - 09:19:23 10° NW 09:23:54 84° NE 09:28:40 10° SE daylight
23 Oct - 11:48:16 10° SW 11:50:02 11° SSW 11:52:01 10° S daylight
23 Oct - 16:45:24 10° SSW 16:56:06 20° SSE 17:10:41 10° ESE daylight
23 Oct - 19:10:05 10° SW 19:30:28 53° SE 19:55:22 10° ENE visible
23 Oct - 21:39:08 10° WSW 22:04:33 74° NW 22:27:01 10° NE visible
24 Oct - 00:17:38 10° W 00:38:12 31° NW 00:52:53 10° NNE visible
24 Oct - 08:09:03 10° NNW 08:13:35 31° NNE 08:17:29 10° E daylight
24 Oct - 10:35:16 10° W 10:38:39 21° SSW 10:42:41 10° SSE daylight
24 Oct - 15:37:33 10° S 15:41:13 11° SSE 15:45:24 10° SE daylight
24 Oct - 17:59:04 10° SSW 18:15:31 37° SE 18:38:09 10° E visible
24 Oct - 20:25:44 10° SW 20:49:16 84° SE 21:14:12 10° NE visible
24 Oct - 22:59:08 10° WSW 23:23:20 45° NW 23:42:12 10° NNE visible
25 Oct - 01:47:10 10° WNW 01:57:53 16° NNW 02:06:06 10° N visible
25 Oct - 06:59:06 10° NNW 07:02:35 15° NNE 07:05:27 10° ENE daylight
25 Oct - 09:23:40 10° WNW 09:28:04 50° SW 09:32:37 10° SE daylight
25 Oct - 16:48:58 10° SSW 17:00:55 24° SSE 17:17:50 10° E daylight
25 Oct - 19:13:39 10° SW 19:34:07 64° SE 19:59:52 10° ENE visible
25 Oct - 21:43:21 10° WSW 22:08:08 63° NW 22:30:37 10° NE visible
26 Oct - 00:24:06 10° W 00:42:44 25° NNW 00:56:28 10° NNE visible
26 Oct - 08:12:38 10° NW 08:17:50 58° NE 08:22:08 10° ESE daylight
26 Oct - 10:41:32 10° SW 10:43:08 12° SSW 10:44:51 10° S daylight
26 Oct - 15:40:30 10° S 15:46:31 13° SSE 15:54:02 10° SE daylight
26 Oct - 18:02:36 10° SSW 18:19:28 45° SE 18:43:28 10° ENE visible
26 Oct - 20:29:36 10° SW 20:52:47 83° NW 21:17:59 10° NE visible
26 Oct - 23:04:28 10° W 23:27:24 38° NW 23:45:44 10° NNE visible
27 Oct - 01:54:56 10° NW 02:03:19 14° NNW 02:10:02 10° N visible
27 Oct - 07:01:49 10° NNW 07:07:09 26° NNE 07:11:05 10° E daylight
27 Oct - 09:28:24 10° W 09:32:16 26° SW 09:36:10 10° SSE daylight
27 Oct - 16:52:27 10° SSW 17:05:18 29° SE 17:24:22 10° E daylight
27 Oct - 19:17:20 10° SW 19:37:40 75° SE 20:04:01 10° ENE visible
27 Oct - 21:47:55 10° WSW 22:11:53 53° NW 22:34:08 10° NE visible
28 Oct - 00:31:08 10° WNW 00:47:42 21° NNW 01:00:13 10° NNE visible
28 Oct - 05:50:57 10° NNW 05:55:37 16° NNE 05:59:11 10° ENE daylight
28 Oct - 08:16:36 10° WNW 08:22:00 75° SW 08:26:22 10° SE daylight
28 Oct - 15:43:35 10° S 15:51:27 17° SSE 16:02:07 10° ESE daylight
28 Oct - 18:06:10 10° SW 18:23:10 54° SE 18:48:16 10° ENE visible
28 Oct - 20:33:42 10° WSW 20:56:22 71° NW 21:21:36 10° NE visible
28 Oct - 23:10:20 10° W 23:31:49 32° NNW 23:49:19 10° NNE visible
29 Oct - 02:02:00 10° NW 02:09:02 13° NNW 02:14:47 10° N visible
29 Oct - 04:39:33 10° N 04:43:11 12° N 04:46:11 10° NNE visible
29 Oct - 07:05:08 10° NW 07:11:35 44° NNE 07:15:59 10° ESE daylight
29 Oct - 09:33:56 10° WSW 09:36:30 15° SSW 09:39:03 10° S daylight
29 Oct - 16:55:56 10° SSW 17:09:21 36° SE 17:30:14 10° E daylight
29 Oct - 19:21:09 10° SW 19:41:12 87° SE 20:07:52 10° NE visible
29 Oct - 21:52:53 10° W 22:15:54 45° NW 22:37:38 10° NE visible
30 Oct - 00:38:30 10° WNW 00:53:05 18° NNW 01:04:19 10° NNE visible
30 Oct - 03:25:57 10° NNW 03:29:40 11° N 03:32:50 10° NNE visible
30 Oct - 05:53:34 10° NNW 06:00:23 25° NNE 06:04:57 10° E daylight
30 Oct - 08:21:00 10° WNW 08:26:06 40° SW 08:30:13 10° SSE daylight
30 Oct - 15:46:46 10° S 15:56:00 21° SE 16:09:28 10° E daylight
30 Oct - 18:09:49 10° SW 18:26:44 65° SE 18:52:38 10° ENE visible
30 Oct - 20:38:04 10° WSW 21:00:08 60° NW 21:25:05 10° NE visible
30 Oct - 23:16:45 10° WNW 23:36:41 27° NNW 23:53:03 10° NNE visible
